Regional Weather Roundup
Issued by NWS Sterling, VA

Home | Current Version | Previous Version | Graphics & Text | Print | Product List | Glossary On
Versions: 1 2 3 4 5 6 7 8 9 10 11 12 13 14 15 16 17 18 19 20 21 22 23 24 25 26 27 28 29 30 31 32 33 34 35 36 37 38 39 40 41 42 43 44 45 46 47 48 49 50
000
ASUS41 KLWX 031610
RWRLWX

REGIONAL WEATHER ROUNDUP
NATIONAL WEATHER SERVICE BALTIMORE MD/WASHINGTON DC
1100 AM EST TUE MAR 03 2015

Note: "FAIR" indicates few or no clouds below 12,000 feet
with no significant weather and/or obstructions to visibility.
 TC=TEMPERATURE CELSIUS

 * =Non NWS site. Station does not report precipitation (e.g. rain,
    snow, etc.), thunder, or fog.

DCZ001-MDZ009-015-VAZ040>042-051-053>054-031700-
WASHINGTON METRO

CITY           SKY/WX    TMP DP  RH WIND       PRES   REMARKS
WASHINGTON NAT CLOUDY    34  16  47 SE8       30.41F WCI  27
DULLES         CLOUDY    32  14  47 S10       30.37F WCI  24
ANDREWS AFB    CLOUDY    32  16  51 S9        30.38F WCI  24
FT BELVOIR     CLOUDY    33  16  50 SE6       30.40F
QUANTICO       CLOUDY    32  18  56 SW8       30.42F WCI  25
COLLEGE PARK*  CLOUDY    32  18  55 SE6       30.40F
LEESBURG*      CLOUDY    32  19  59 S9        30.37F WCI  24
MANASSAS*      CLOUDY    34  18  51 S8        30.39F WCI  27
GAITHERSBURG*  CLOUDY    28  14  54 SE10      30.40F WCI  19

$$

MDZ006>007-011-014-031700-
BALTIMORE METRO

CITY           SKY/WX    TMP DP  RH WIND       PRES   REMARKS
BWI AIRPORT    CLOUDY    29  14  53 E9        30.39F WCI  20
MD SCIENCE CTR   N/A     30  15  53 MISG      30.40F
MARTIN STATE   CLOUDY    30  18  59 SE7       30.43F
ANNAPOLIS      CLOUDY    30  18  60 SE10      30.41F WCI  21
FORT MEADE*    CLOUDY    32  16  51 SE10      30.42F WCI  24

$$

MDZ012-015-019>023-031700-
MARYLAND EASTERN SHORE

CITY           SKY/WX    TMP DP  RH WIND       PRES   REMARKS
OCEAN CITY     CLOUDY    34  21  59 NE5       30.44F
SALISBURY      PTSUNNY   36  20  52 E8        30.42F
BAY BRIDGE AP*   N/A     32  16  51 SE7       30.42F
CAMBRIDGE*     CLOUDY    34  18  51 SE7       30.41F
EASTON*        CLOUDY    32  18  55 SE9       30.45F WCI  24

$$

MDZ017>025-031700-
SOUTHERN MARYLAND

CITY           SKY/WX    TMP DP  RH WIND       PRES   REMARKS
PATUXENT RIVER CLOUDY    31  20  63 SE9       30.42F WCI  23
ST INIGOES     NOT AVBL
LEONARDTOWN*   CLOUDY    32  19  59 E7        30.42F

$$

MDZ003>005-031700-
NORTH CENTRAL MARYLAND

CITY           SKY/WX    TMP DP  RH WIND       PRES   REMARKS
FREDERICK*     CLOUDY    32  10  40 S8        30.39F WCI  25
HAGERSTOWN APT CLOUDY    30  11  45 S13       30.31F WCI  20
WESTMINSTER*   CLOUDY    28  12  50 S10       30.33F WCI  19

$$

MDZ501>502-031700-
WESTERN MARYLAND

CITY           SKY/WX    TMP DP  RH WIND       PRES   REMARKS
OAKLAND*       CLOUDY    25  21  86 SE21G28   30.03F WCI  10
CUMBERLAND*    PTSUNNY   32  18  55 SE7       30.27F

$$

VAZ025>031-031700-
SHENANDOAH VALLEY

CITY           SKY/WX    TMP DP  RH WIND       PRES   REMARKS
WINCHESTER*    CLOUDY    34  12  40 SE9G17    30.30F WCI  26
FRONT ROYAL*   CLOUDY    32  19  59 S9        30.29F WCI  24
LURAY*         CLOUDY    36  23  60 S8        30.28F
NEW MARKET*    CLOUDY    34  21  58 SW14G21   30.27F WCI  25
STAUNTON*      CLOUDY    33  18  54 S15       30.31F WCI  22
WAYNESBORO*    CLOUDY    31  17  55 SE12      30.30F WCI  22

$$

WVZ021-048>050-054>055-031700-
EASTERN WEST VIRGINIA PANHANDLE

CITY           SKY/WX    TMP DP  RH WIND       PRES   REMARKS
MARTINSBURG    CLOUDY    32  15  49 SE10      30.32F WCI  24
PETERSBURG*    NOT AVBL

$$

VAZ036>039-050-031700-
CENTRAL FOOTHILLS

CITY           SKY/WX    TMP DP  RH WIND       PRES   REMARKS
CHARLOTTESVILL CLOUDY    33  17  51 S9        30.36F WCI  25
CULPEPER*      CLOUDY    34  16  47 S7        30.38F
ORANGE*        CLOUDY    34  19  55 SE8       30.40F WCI  27
GORDONSVILLE*  CLOUDY    32  16  52 S9        30.38F WCI  24
WARRENTON*     PTSUNNY   34  22  61 S8        30.38F WCI  27

$$

VAZ055>057-031700-
NORTH AND CENTRAL PIEDMONT

CITY           SKY/WX    TMP DP  RH WIND       PRES   REMARKS
FREDERICKSBRG* CLOUDY    35  17  49 SE6       30.42S
STAFFORD*      CLOUDY    33  14  46 S7        30.45S

$$

NCZ024-NYZ072-PAZ021-071-VAZ022-071-031700-
OTHER REGIONAL OBSERVATIONS

CITY           SKY/WX    TMP DP  RH WIND       PRES   REMARKS
NEW YORK CITY  CLOUDY    30   8  39 VRB6      30.42F
PHILADELPHIA   CLOUDY    30  11  45 S5        30.42F
PITTSBURGH     CLOUDY    28  17  63 SE8       30.06F WCI  20
ROANOKE        CLOUDY    34  20  56 SE9       30.34F WCI  27
RICHMOND       CLOUDY    34  17  50 SE5       30.42F
RALEIGH        CLOUDY    38  20  48 E5        30.37F

$$

ANZ530>537-031700-
MARINE OBSERVATIONS

STATION/POSITION TIME  TEMP    WIND        PRES
                       AIR SEA DIR/SP/G
                 (UTC) (F)     (DEG/KT/KT) (MB)
THOMAS PT LIGHT  1600   30 31  150/  7/  8 1030.6F
BALT KEY BRIDGE  1500   27     110/  9/ 11   N/A
COVE POINT       1500   29     170/  5/  6   N/A
LEWISETTA        1500   30        CALM       N/A
SOLOMONS ISLAND  1518      33                N/A

$$




USA.gov is the U.S. government's official web portal to all federal, state and local government web resources and services.